This is the latest recevied weather packets stored in our database for station/object K4PAD. If no packets are shown the sender has not sent any weather packets the latest 10 day(s).
| Time | Temp. | Humidity | Pressure | Rain* | Wind** | Luminosity | Snow |
|---|---|---|---|---|---|---|---|
| 1777937616 | 23.33° C | 56% | 1016.9 hPa | 0 mm | - | 31 W/m² | - |
| 1777937313 | 23.33° C | 56% | 1016.9 hPa | 0 mm | - | 35 W/m² | - |
| 1777937010 | 23.89° C | 54% | 1017 hPa | 0 mm | - | 45 W/m² | - |
| 1777936706 | 23.89° C | 54% | 1016.8 hPa | 0 mm | - | 58 W/m² | - |
| 1777936403 | 23.89° C | 53% | 1016.9 hPa | 0 mm | - | 72 W/m² | - |
| 1777936099 | 23.89° C | 53% | 1016.8 hPa | 0 mm | - | 85 W/m² | - |
| 1777935797 | 24.44° C | 52% | 1016.7 hPa | 0 mm | - | 99 W/m² | - |
| 1777935496 | 24.44° C | 51% | 1016.9 hPa | 0 mm | - | 119 W/m² | - |
| 1777935192 | 25° C | 51% | 1016.8 hPa | 0 mm | - | 132 W/m² | - |
| 1777934889 | 25° C | 50% | 1016.6 hPa | 0 mm | - | 143 W/m² | - |
| 1777934586 | 25° C | 48% | 1017 hPa | 0 mm | - | 136 W/m² | - |
| 1777934282 | 25° C | 49% | 1016.8 hPa | 0 mm | - | 177 W/m² | - |
| 1777933978 | 25° C | 48% | 1016.9 hPa | 0 mm | - | 204 W/m² | - |
| 1777933675 | 25° C | 49% | 1016.7 hPa | 0 mm | - | 235 W/m² | - |
| 1777933372 | 25° C | 48% | 1017.1 hPa | 0 mm | - | 251 W/m² | - |
| 1777933070 | 25.56° C | 48% | 1016.8 hPa | 0 mm | - | 275 W/m² | - |
| 1777932767 | 25.56° C | 47% | 1017 hPa | 0 mm | - | 302 W/m² | - |
| 1777932463 | 25° C | 47% | 1016.8 hPa | 0 mm | - | 322 W/m² | - |
| 1777932160 | 25.56° C | 46% | 1017 hPa | 0 mm | - | 350 W/m² | - |
| 1777931858 | 25.56° C | 47% | 1016.9 hPa | 0 mm | - | 373 W/m² | - |
| 1777931554 | 25.56° C | 46% | 1017 hPa | 0 mm | - | 390 W/m² | - |
| 1777931250 | 26.11° C | 46% | 1017 hPa | 0 mm | - | 415 W/m² | - |
| 1777930947 | 26.11° C | 42% | 1016.8 hPa | 0 mm | - | 435 W/m² | - |
| 1777930643 | 26.11° C | 42% | 1016.9 hPa | 0 mm | - | 458 W/m² | - |
| 1777930340 | 26.67° C | 43% | 1016.8 hPa | 0 mm | - | 482 W/m² | - |
* Rain latest hour (hover to see other rain measurements)
** Current wind speed in m/s (hover to see current wind gust speed)